Presure
96 128 115 136 123 139 125 122 112 119 138 97 124 130 103 127 124 110 107 109 111 114 110 122 120 123 104 136 103 137 118 116 134 114 120 150 164 142 148 154 116 155 196 154 181
134 118 104 130 128 130 120 111 115 122 127 106 108 111 125 107 92 108 131 113 104 109 105 125 132 134 103 112 139 127 142 145 135 129 138 146 160 193 126 140 155 178 189 177 188
98 139 118 111 127 148 102 103 110 142 86 107 119 112 104 113 126 127 125 131 106 129 131 125 116 134 115 123 121 127 133 132 140 130 150 113 114 180 127 112 178 184 187 155 180
130 100 125 148 106 120 105 115 122 137 110 126 106 120 103 130 94 127 119 105 109 120 124 148 123 127 127 97 115 118 129 107 125 173 99 126 198 180 117 180 125 205 175 171 175
124 151 143 131 153 109 116 120 131 107 139 135 93 119 134 133 126 119 124 102 123 142 126 136 132 127 126 109 136 157 132 131 143 131 109 130 161 148 140 182 179 190 174 180 176
132 126 135 117 136 130 118 89 122 134 107 134 144 109 130 133 134 115 119 144 145 126 108 123 119 132 107 115 134 133 121 131 145 135 179 204 201 135 170 177 178 164 178 174 183
127 136 183 100 124 131 93 103 141 138 132 147 127 151 142 135 126 157 140 149 148 154 155 124 147 153 106 108 144 138 108 144 147 115 146 136 165 119 189 193 185 192 179 177 179
124 119 125 173 122 121 141 110 134 139 120 132 134 132 126 133 102 118 124 107 145 141 103 138 114 89 141 111 135 121 148 134 148 139 136 205 125 176 198 191 194 180 176 180 179
161 167 217 134 133 134 149 116 152 116 162 111 115 126 112 135 119 133 141 120 152 114 97 104 157 146 121 121 123 141 127 154 137 139 165 183 155 210 169 191 194 181 195 184 177
224 144 131 135 128 168 147 143 152 150 155 126 134 147 123 135 137 135 120 135 136 131 149 139 153 157 127 120 155 129 100 102 95 137 179 212 201 194 196 192 188 166 184 176 169
241 228 225 148 112 129 216 202 140 151 137 146 134 139 135 128 133 144 132 139 112 93 101 103 135 131 86 152 103 157 154 139 167 127 166 211 118 194 194 188 195 180 193 175 178
228 246 215 223 214 161 188 149 146 134 149 151 135 150 147 166 158 108 136 129 132 102 142 126 143 122 105 101 97 129 135 152 154 200 186 179 192 199 187 207 182 100 171 170 173
285 157 240 141 192 183 129 245 122 168 130 157 152 143 133 131 155 152 150 116 139 130 124 163 142 142 131 98 120 124 107 126 111 182 161 146 210 212 209 211 181 181 177 171 173
269 294 255 223 107 177 161 217 194 209 174 150 146 143 185 120 133 161 142 140 131 112 154 127 125 136 139 141 89 134 147 154 152 124 203 178 199 195 206 199 195 171 161 174 164
251 254 280 227 140 172 138 234 148 141 147 197 145 148 132 150 133 146 152 154 159 126 126 114 132 112 158 101 168 161 170 181 138 156 180 225 211 117 178 197 199 188 178 171 163
257 241 198 227 239 213 194 179 212 171 131 119 143 131 108 135 140 137 126 139 117 108 142 126 128 138 137 124 119 104 164 165 174 185 181 192 171 108 133 188 189 173 181 182 191
117 191 242 255 200 184 156 117 222 92 160 167 123 173 188 137 148 135 147 148 143 136 146 124 114 161 116 147 158 170 175 196 171 174 179 185 234 181 187 181 198 163 169 183 172
533 123 236 254 234 226 224 215 135 159 122 215 72 101 139 189 128 137 139 106 142 126 140 140 149 171 121 162 177 177 178 166 186 181 186 217 185 177 196 197 188 178 180 176 195
477 434 248 130 149 252 125 218 127 105 101 230 179 202 98 126 182 164 140 182 123 164 136 169 144 128 190 174 182 167 146 153 172 181 169 180 203 221 196 186 181 185 180 186 198
415 529 254 234 237 254 232 214 86 224 197 168 169 202 164 150 196 186 199 180 134 176 174 159 160 184 153 172 177 181 180 168 191 181 176 195 188 189 191 193 184 178 187 178 164
381 469 268 241 170 244 240 224 215 196 184 215 142 105 199 174 172 188 209 167 183 183 158 106 127 171 181 175 181 171 174 188 172 194 181 175 203 199 194 173 191 179 182 189 160
369 408 387 238 239 237 248 222 220 225 217 202 212 212 184 109 185 200 112 177 171 204 183 161 185 182 104 104 184 188 178 180 184 190 186 193 216 178 187 178 184 190 185 185 179
352 377 494 237 246 235 258 233 229 204 203 214 176 199 204 205 171 178 178 176 158 179 166 191 157 193 164 169 178 182 182 180 179 187 191 189 185 184 183 185 177 186 178 189 185
333 373 427 265 246 230 273 241 231 214 209 216 200 205 195 215 191 195 156 195 188 185 109 188 189 176 181 177 173 178 190 172 190 179 185 192 189 191 176 185 174 186 186 193 172
336 375 417 319 254 241 285 253 232 228 207 216 209 204 196 198 179 191 190 183 176 174 179 190 199 188 184 183 184 177 179 199 204 188 197 185 196 174 176 190 186 179 181 186 199
344 382 395 342 253 241 243 260 244 227 217 213 219 206 198 202 218 199 181 176 175 180 185 181 194 183 90 129 189 202 175 187 203 194 192 198 183 181 182 176 185 178 192 188 186
348 353 387 435 255 238 248 292 235 231 211 222 193 208 208 194 196 181 178 176 177 182 177 183 176 180 183 181 190 186 194 194 195 199 201 188 169 177 186 173 168 176 180 183 176
Wind_Speed
56 67 60 67 59 63 59 59 54 54 57 46 52 53 46 52 51 42 45 45 43 45 44 47 46 46 38 45 30 48 41 44 49 47 57 58 50 53 36 52 53 45 42 49 43
76 63 59 65 67 61 60 54 55 57 57 54 56 55 56 46 25 47 54 46 39 46 40 49 48 45 35 45 50 49 42 42 49 48 53 57 48 41 43 55 44 41 43 44 42
67 82 64 66 66 76 55 56 59 66 39 57 58 58 56 56 58 54 52 52 47 48 49 49 50 48 45 46 45 48 39 44 48 48 51 41 25 44 50 52 40 37 36 56 42
85 67 74 88 61 66 59 60 59 68 59 61 58 59 57 61 33 55 51 48 49 47 46 52 53 53 45 25 51 48 43 39 46 55 36 46 42 45 36 44 57 37 40 43 41
85 95 91 76 88 66 65 69 70 62 68 68 42 60 62 65 68 56 59 42 51 52 48 49 51 54 46 41 53 54 47 45 47 49 51 53 46 55 32 43 47 41 43 38 41
92 73 73 79 85 72 67 44 69 72 65 62 68 62 62 70 60 63 56 64 60 50 47 48 48 57 45 50 50 53 38 44 47 53 42 36 39 46 45 43 49 42 40 41 38
85 99 105 64 75 80 51 67 84 81 72 77 63 70 70 83 63 66 73 65 63 62 60 47 58 58 44 46 51 52 47 52 47 56 54 56 56 62 34 37 43 46 42 43 40
75 80 80 104 73 79 92 76 79 80 65 67 69 65 71 83 51 66 71 40 58 55 45 55 52 27 55 35 50 48 56 54 50 52 52 32 30 51 36 35 38 44 46 43 43
110 101 114 94 85 88 98 72 92 69 88 57 67 73 77 81 69 74 67 58 64 55 39 49 63 60 55 50 52 52 52 58 53 51 55 39 62 45 40 38 37 41 47 46 49
122 98 93 92 80 98 95 96 96 92 89 63 68 82 81 91 80 69 62 61 56 53 63 59 59 67 59 54 61 48 39 39 22 50 58 34 42 39 37 37 39 47 42 46 52
122 123 121 105 82 81 111 113 85 96 85 91 86 88 84 82 70 77 64 67 52 30 35 35 51 63 34 59 40 62 61 54 60 51 56 42 47 41 41 43 42 36 44 48 51
123 128 121 118 112 102 112 89 100 81 98 93 75 89 87 93 87 53 69 62 66 47 62 54 62 41 50 45 29 55 53 58 59 58 52 53 45 46 51 48 37 20 40 49 52
114 81 127 97 114 101 78 105 74 104 79 94 88 84 78 72 89 85 77 65 70 65 60 74 65 63 60 37 59 47 38 45 48 60 56 61 42 41 43 35 38 34 38 50 51
111 112 130 125 39 105 96 103 102 109 112 96 89 89 95 72 68 91 81 73 62 54 77 49 62 62 60 64 30 54 56 61 62 59 46 51 36 39 42 33 32 36 55 45 50
114 111 119 122 74 82 80 103 104 93 87 109 88 91 79 83 85 85 89 86 86 70 56 68 63 55 71 37 75 74 68 69 56 58 54 35 27 79 38 35 37 34 40 42 52
116 115 95 122 124 115 97 91 126 106 65 59 86 66 57 79 88 88 66 79 63 55 65 58 62 63 62 58 48 51 71 65 65 58 53 52 44 24 56 46 39 37 35 38 42
78 95 120 138 98 103 89 77 132 26 84 83 68 93 104 88 90 82 90 85 75 61 76 65 68 79 58 74 75 76 76 71 60 64 57 62 36 35 49 49 38 50 44 37 44
53 67 119 119 121 126 124 132 61 78 63 108 32 45 77 112 79 85 85 52 78 73 70 66 74 85 71 78 81 77 77 69 69 67 61 46 44 52 49 44 39 43 40 42 42
48 85 123 76 89 137 70 139 76 59 61 102 91 109 41 59 99 96 86 97 66 92 64 87 81 69 88 85 84 77 60 68 70 69 63 58 48 39 44 44 44 43 45 42 46
55 55 122 121 128 136 141 142 53 114 101 82 82 109 101 77 105 85 96 99 77 99 100 90 83 89 76 85 82 80 80 74 74 71 64 49 51 48 47 45 43 46 47 41 45
64 59 130 127 110 133 146 143 129 104 90 108 83 57 111 103 103 103 89 97 99 99 89 48 66 90 90 86 86 79 79 75 74 70 67 61 44 47 42 53 49 48 46 50 50
71 80 110 132 137 132 143 139 131 119 116 120 110 106 108 60 110 97 70 103 100 90 101 92 99 94 61 57 87 82 82 84 79 74 70 60 41 53 45 53 51 54 49 49 47
79 66 66 140 140 132 141 145 135 123 114 115 99 115 104 101 85 93 104 104 80 85 99 91 84 85 87 90 88 85 85 83 79 77 65 64 51 56 55 53 51 55 52 55 53
86 87 77 148 135 131 142 145 133 124 125 116 116 111 111 98 102 95 82 92 99 99 74 98 95 86 89 87 85 83 83 80 83 74 72 59 61 55 57 57 54 58 59 62 55
91 86 75 142 135 129 133 144 132 128 125 117 117 112 112 106 97 98 100 103 107 103 103 94 82 88 89 91 89 83 85 82 72 74 65 67 58 59 62 64 60 62 63 66 70
88 72 70 129 131 125 123 138 135 129 126 119 102 102 111 106 90 98 104 107 106 104 99 101 90 93 39 65 92 84 83 81 71 71 67 59 64 69 65 61 68 67 72 71 73
76 65 61 63 131 126 127 119 135 126 121 113 116 106 118 112 105 103 108 110 109 105 106 101 100 100 93 92 88 84 75 78 77 73 61 60 68 73 71 65 63 70 71 76 68
Wind_Direction
246 248 248 246 247 245 245 249 250 251 249 265 255 255 269 258 259 265 269 273 278 276 282 277 281 280 300 286 306 288 293 299 296 311 309 305 318 311 323 316 320 320 304 320 314
255 253 245 245 249 246 250 252 253 252 251 257 259 259 258 264 266 269 263 267 278 279 285 272 276 278 299 295 284 290 289 293 297 310 297 308 305 315 318 311 315 310 306 315 310
241 247 242 243 251 245 249 254 254 248 247 256 257 258 262 265 259 261 262 266 274 267 273 274 278 278 282 285 281 285 289 289 296 292 303 312 297 313 304 316 312 307 304 317 308
256 241 248 247 241 251 249 248 248 250 253 251 256 256 264 259 264 260 263 271 270 266 266 268 275 279 280 297 289 290 290 296 292 306 308 308 304 309 299 315 317 306 308 309 305
248 248 250 250 246 247 250 254 253 248 251 249 254 255 254 257 258 261 260 269 263 264 264 267 272 274 278 292 285 291 294 292 296 295 302 306 308 312 303 310 305 304 306 301 296
241 253 245 243 248 248 252 244 248 254 249 249 249 258 257 257 258 260 261 261 263 264 274 267 269 273 288 284 283 289 296 290 296 296 295 297 293 307 305 301 301 305 302 300 292
256 252 243 247 252 255 245 248 249 252 253 248 251 249 255 257 256 257 259 260 262 264 267 264 271 275 287 289 282 285 297 291 295 297 298 297 300 302 306 293 292 291 296 294 292
252 248 253 242 249 250 251 246 253 252 241 255 255 256 257 259 256 255 257 263 259 264 273 266 270 263 276 276 281 286 289 292 296 298 296 293 296 307 299 285 285 287 293 287 284
241 240 243 252 249 253 249 245 246 249 244 249 252 252 255 258 249 257 259 256 263 259 261 273 270 275 272 279 281 284 285 291 291 296 299 298 297 292 302 286 285 290 290 288 287
238 248 246 253 251 239 242 249 245 247 245 243 246 247 249 253 253 258 252 260 258 265 269 266 272 273 267 278 281 285 292 295 299 299 306 292 286 298 289 286 283 292 288 286 289
237 236 238 245 238 249 240 236 252 246 248 244 246 247 252 257 258 258 258 262 248 252 269 261 272 268 259 277 282 283 284 288 293 298 305 294 299 292 289 287 286 286 289 287 288
236 235 237 236 239 248 238 237 242 248 247 243 250 246 250 245 250 251 260 262 255 261 265 262 267 268 274 275 288 283 288 288 293 298 305 301 291 284 287 284 285 295 280 281 287
234 237 234 244 239 236 227 235 236 242 239 246 238 247 244 253 254 256 256 249 260 259 266 261 270 273 270 278 278 280 293 291 297 299 298 295 284 283 282 282 286 281 279 279 287
230 231 230 233 246 239 242 237 238 236 238 244 249 245 240 246 254 251 255 260 260 259 261 266 267 273 276 272 269 285 283 290 288 289 298 301 280 280 274 286 275 274 288 286 294
228 227 224 229 241 228 236 228 244 239 242 230 248 243 256 251 255 258 255 257 256 254 258 259 268 268 270 274 273 277 285 285 289 295 299 283 268 291 288 292 276 269 272 284 288
229 225 228 221 224 226 231 230 231 232 234 239 246 245 245 252 251 257 251 258 254 256 266 263 264 272 274 277 272 288 280 283 288 292 296 287 303 280 303 287 276 282 276 280 289
239 228 222 216 227 230 237 241 227 185 228 233 241 232 235 250 240 255 254 251 262 259 263 261 264 267 273 270 274 273 277 281 287 288 289 289 286 280 279 287 279 284 284 286 283
235 233 221 217 218 220 221 227 241 229 231 228 236 242 244 235 244 252 257 256 257 256 260 262 260 261 268 271 270 274 276 282 282 286 290 291 297 288 271 274 279 279 286 284 289
238 220 217 238 236 216 235 225 222 233 238 227 229 228 248 247 239 240 256 243 258 254 259 255 259 259 260 266 268 274 276 280 281 286 289 292 284 265 274 276 281 287 285 290 294
239 237 212 215 217 217 217 224 221 220 224 232 233 227 232 239 236 241 238 240 254 249 253 262 260 256 268 268 269 274 274 276 280 285 290 291 283 280 277 283 284 284 286 289 284
230 235 207 213 231 215 213 221 222 221 223 222 238 254 228 235 240 237 240 244 240 242 250 254 255 265 264 269 268 275 277 277 281 281 282 285 282 276 284 283 281 286 294 291 287
226 225 210 212 214 214 211 218 219 217 218 222 223 225 229 255 234 235 259 239 241 240 244 258 251 255 264 266 265 270 271 272 276 276 282 289 282 288 274 280 284 282 293 291 289
227 227 229 211 212 214 210 216 217 221 220 217 222 225 225 226 235 237 241 245 251 246 249 249 259 251 266 266 264 266 268 271 279 280 283 286 287 278 284 286 294 295 296 293 292
221 219 221 209 210 214 211 213 215 217 222 216 223 223 229 225 227 229 243 238 245 247 260 248 250 254 256 260 265 269 269 275 274 284 280 285 282 284 289 292 294 297 296 292 295
219 219 219 207 209 211 210 210 214 215 222 217 219 222 228 231 228 230 234 240 247 251 252 253 252 253 257 261 264 269 273 271 274 277 280 281 283 286 293 296 292 296 295 295 292
217 217 214 205 208 211 211 211 211 214 216 220 216 219 225 227 219 222 235 242 247 247 249 254 254 255 273 266 262 263 270 272 276 279 278 269 290 291 293 296 295 295 293 296 294
213 210 215 223 208 211 210 209 210 212 219 210 225 216 222 229 228 229 235 241 245 246 251 250 257 259 261 265 265 269 271 272 273 276 269 276 286 290 289 291 287 295 294 293 298